Regional Weather Roundup
Issued by NWS

Home | Current Version | Previous Version | Text Only | Print | Product List | Glossary Off
Versions: 1 2 3 4 5 6 7 8 9 10 11 12 13 14 15 16 17 18 19 20 21 22 23 24 25 26 27 28 29 30 31 32 33 34 35 36 37 38 39 40 41 42 43 44 45 46 47 48 49 50

000
ASUS43 KOAX 301710
RWRNE

WEATHER ROUNDUP FOR NEBRASKA
NATIONAL WEATHER SERVICE OMAHA NE
1200 PM CDT SAT AUG 30 2014

NOTES: SATELLITE DATA IS BEING USED TO AUGMENT CLOUD COVER ABOVE
       12000 FEET.
       "FAIR" INDICATES FEW OR NO CLOUDS BELOW 12,000 FEET WITH NO
       SIGNIFICANT WEATHER AND/OR OBSTRUCTIONS TO VISIBILITY.

  * THESE STATIONS DO NOT REPORT WEATHER SUCH AS RAIN...SNOW OR FOG.

NEZ001>004-019>022-054>056-301800-
NEBRASKA PANHANDLE

CITY           SKY/WX    TMP DP  RH WIND       PRES   REMARKS
SCOTTSBLUFF    SUNNY     79  53  40 VRB7      29.94F
ALLIANCE       SUNNY     77  56  48 S20G25    29.95F
CHADRON        SUNNY     81  56  42 S13       29.87F
KIMBALL        SUNNY     79  47  32 SW8       30.00F
SIDNEY         SUNNY     77  55  46 S13       30.00F
$$

NEZ057>060-069>072-079>082-301800-
SOUTHWEST NEBRASKA

CITY           SKY/WX    TMP DP  RH WIND       PRES   REMARKS
NORTH PLATTE   SUNNY     74  61  63 SE9       29.98F
IMPERIAL       SUNNY     75  59  57 SE13      29.99F
LEXINGTON      SUNNY     75  65  69 SE8       29.99F
MCCOOK         SUNNY     77  60  55 SE10      29.99F
OGALLALA       SUNNY     74  60  60 SE9       29.97F
$$

NEZ005>010-023>029-035>040-094-301800-
NORTH CENTRAL NEBRASKA

CITY           SKY/WX    TMP DP  RH WIND       PRES   REMARKS
VALENTINE      SUNNY     73  59  61 SE9       29.94F
AINSWORTH      SUNNY     70  60  72 SE9       29.97F
BROKEN BOW     SUNNY     73  61  65 S8        29.99F
O`NEILL        SUNNY     71  61  71 CALM      29.98F
ORD            SUNNY     69  61  75 CALM      29.98F
THEDFORD       SUNNY     74  59  58 SE13      29.98F
$$

NEZ041-046>049-061>064-073>077-083>087-301800-
SOUTH CENTRAL NEBRASKA

CITY           SKY/WX    TMP DP  RH WIND       PRES   REMARKS
GRAND ISLAND   SUNNY     75  61  61 E5        29.99F
AURORA         SUNNY     73  65  74 E3        29.99S
HASTINGS       SUNNY     75  62  64 CALM      29.99F
HEBRON         SUNNY     77  62  60 CALM      29.98S
HOLDREGE       SUNNY     74  63  69 SE7       29.99F
KEARNEY *      SUNNY     73  64  73 E8        30.00F
YORK           SUNNY     73 N/A N/A CALM      29.98F
$$

NEZ011>018-030>034-042>045-301800-
NORTHEAST NEBRASKA

CITY           SKY/WX    TMP DP  RH WIND       PRES   REMARKS
NORFOLK        SUNNY     71  60  68 NW5       29.97F
ALBION         SUNNY     71  59  66 CALM      29.98F
BLAIR          CLOUDY    70  65  85 NW3       29.96S
FREMONT        SUNNY     75  63  64 NW5       29.96F
TEKAMAH        MOSUNNY   73  64  73 W7        29.95S
WAYNE          PTSUNNY   69  61  74 NW3       29.97S
$$

NEZ050>053-065>068-078-088>093-301800-
SOUTHEAST NEBRASKA

CITY           SKY/WX    TMP DP  RH WIND       PRES   REMARKS
LINCOLN        SUNNY     78  66  66 CALM      29.96F
OMAHA EPPLEY   CLOUDY    71  65  81 N5        29.95F
BEATRICE       SUNNY     78  67  70 CALM      29.96F
FALLS CITY     SUNNY     82  70  66 N3        29.93F
NEBRASKA CITY  SUNNY     77  67  71 NW5       29.95S
PLATTSMOUTH    CLOUDY    70  65  85 NW5       29.96S
$$

NEZ044-045-051>053-067-301800-
OMAHA AREA

CITY           SKY/WX    TMP DP  RH WIND       PRES   REMARKS
OMAHA EPPLEY   CLOUDY    71  65  81 N5        29.95F
BLAIR          CLOUDY    70  65  85 NW3       29.96S
FREMONT        SUNNY     75  63  64 NW5       29.96F
MILLARD        CLOUDY    71  66  84 CALM      29.95F
OFFUTT AFB     CLOUDY    70  70 100 NW7       29.95F
PLATTSMOUTH    CLOUDY    70  65  85 NW5       29.96S
WAHOO          FAIR      76  63  65 NW5       29.96S
$$


USA.gov is the U.S. government's official web portal to all federal, state and local government web resources and services.